Printer-friendly version

IAU Minor Planet Center

Minor Planet Center

MPEC 2006-W54 : 2006 WP3

The following Minor Planet Electronic Circular may be linked-to from your own Web pages, but must not otherwise be redistributed electronically.


Read MPEC 2006-W53 Read MPEC 2006-W55


M.P.E.C. 2006-W54                                Issued 2006 Nov. 22, 01:29 UT

     The Minor Planet Electronic Circulars contain information on unusual
         minor planets and routine data on comets.  They are published
   on behalf of Commission 20 of the International Astronomical Union by the
          Minor Planet Center, Smithsonian Astrophysical Observatory,
                          Cambridge, MA 02138, U.S.A.

             Prepared using the Tamkin Foundation Computer Network

                              MPC@CFA.HARVARD.EDU
          URL http://cfa-www.harvard.edu/iau/mpc.html  ISSN 1523-6714

                                   2006 WP3

Observations:
     K06W03P* C2006 11 20.70662 06 00 38.70 -32 24 17.1          18.6 V EW054E12
     K06W03P  C2006 11 20.71595 06 00 33.80 -32 22 51.6          19.1 V EW054E12
     K06W03P  C2006 11 20.72530 06 00 28.90 -32 21 24.5          18.6 V EW054E12
     K06W03P  C2006 11 20.73458 06 00 24.22 -32 19 58.9          18.9 V EW054E12
     K06W03P  C2006 11 20.74179 06 00 20.41 -32 18 52.1          18.3 V EW054E12
     K06W03P  C2006 11 20.74233 06 00 20.19 -32 18 48.7          19.2 V EW054E12
     K06W03P  C2006 11 20.74286 06 00 19.94 -32 18 42.9          18.6 V EW054E12
     K06W03P  C2006 11 20.74339 06 00 19.72 -32 18 38.1          18.6 V EW054E12
     K06W03P  C2006 11 21.51581 05 55 19.12 -30 29 13.5          19.1 V EW054E12
     K06W03P  C2006 11 21.51623 05 55 18.91 -30 29 11.1          19.2 V EW054E12
     K06W03P  C2006 11 21.51664 05 55 18.66 -30 29 08.0          19.6 V EW054E12
     K06W03P  C2006 11 21.51706 05 55 18.55 -30 29 04.8          19.1 V EW054E12

Observer details:
E12 Siding Spring Survey.  Observer G. J. Garradd.  Measurers E. C. Beshore,
    E. J. Christensen, G. J. Garradd, A. R. Gibbs, A. D. Grauer, R. E. Hill,
    R. A. Kowalski, S. M. Larson, R. H. McNaught.  0.5-m Uppsala Schmidt + CCD.

Orbital elements:
2006 WP3                                                 Earth MOID = 0.0235 AU
Epoch 2006 Sept. 22.0 TT = JDT 2454000.5                MPC
M 351.29669              (2000.0)            P               Q
n   0.60695413     Peri.  140.87782     +0.99498200     -0.04243533
a   1.3815464      Node   221.82943     +0.01323499     +0.95346716
e   0.3526509      Incl.    7.80855     +0.09917484     +0.29849560
P   1.62           H   23.3           G   0.15           U   9
Residuals in seconds of arc
061120 E12  0.4+  0.1-    061120 E12  0.8-  0.6+    061121 E12  0.6+  0.6+
061120 E12  0.1-  0.4-    061120 E12  0.1-  1.0-    061121 E12  0.2+  0.2-
061120 E12  0.8-  0.5+    061120 E12  0.2+  0.1-    061121 E12  0.8-  0.2-
061120 E12  0.6+  0.5+    061120 E12  0.8+  0.2-    061121 E12  0.0   0.2-

Ephemeris:
2006 WP3                 a,e,i = 1.38, 0.35, 8                   q = 0.8943
Date    TT    R. A. (2000) Decl.     Delta      r     Elong.  Phase     V
2006 11 21    05 58.58   -31 41.1    0.0507   1.014   119.3    58.2    18.9
2006 11 22    05 52.30   -29 28.1    0.0554   1.018   122.3    55.1    19.1
2006 11 23    05 47.18   -27 34.3    0.0602   1.023   124.8    52.4    19.2
2006 11 24    05 42.90   -25 55.6    0.0651   1.028   127.0    50.1    19.3
2006 11 25    05 39.26   -24 29.2    0.0700   1.033   129.0    48.0    19.4
2006 11 26    05 36.13   -23 12.7    0.0750   1.038   130.8    46.1    19.5
2006 11 27    05 33.40   -22 04.4    0.0801   1.042   132.3    44.4    19.6
2006 11 28    05 30.99   -21 02.9    0.0852   1.047   133.8    42.9    19.7
2006 11 29    05 28.85   -20 06.9    0.0903   1.052   135.1    41.4    19.8
2006 11 30    05 26.92   -19 15.7    0.0955   1.057   136.3    40.1    19.9
2006 12 01    05 25.18   -18 28.5    0.101    1.062   137.4    38.9    20.0
2006 12 02    05 23.60   -17 44.6    0.106    1.068   138.4    37.8    20.1
2006 12 03    05 22.15   -17 03.6    0.111    1.073   139.3    36.8    20.2
2006 12 04    05 20.83   -16 25.2    0.117    1.078   140.1    35.9    20.3
2006 12 05    05 19.60   -15 48.8    0.122    1.083   140.9    35.0    20.3
2006 12 06    05 18.47   -15 14.3    0.128    1.088   141.6    34.2    20.4
2006 12 07    05 17.42   -14 41.5    0.133    1.093   142.3    33.4    20.5
2006 12 08    05 16.44   -14 10.0    0.139    1.099   142.9    32.8    20.6
2006 12 09    05 15.53   -13 39.8    0.144    1.104   143.4    32.1    20.7
2006 12 10    05 14.68   -13 10.6    0.150    1.109   143.9    31.5    20.7
2006 12 11    05 13.89   -12 42.4    0.156    1.115   144.3    31.0    20.8

Timothy B. Spahr             (C) Copyright 2006 MPC           M.P.E.C. 2006-W54

Read MPEC 2006-W53 Read MPEC 2006-W55


Our Web policy. Index to the CBAT/MPC/ICQ pages.


Valid HTML 4.01!